FW0824 Weather Reports


Display with metric or nautical units.
time (UTC)temp
F
wind
direction
speed
MPH
gust
MPH
rain 1hr
in
rain 24hr
in
rain mn
in
humidity
%
barometer
mb
20221206041529 19 24 2.0 5.0 0.00 0.00 0.00 64 1017.6
20221206041030 20 355 2.0 4.0 0.00 0.00 0.00 64 1017.8
20221206040529 20 355 2.0 4.0 0.00 0.00 0.00 64 1017.9
20221206040029 20 355 1.0 4.0 0.00 0.00 0.00 63 1017.7
20221206035529 20 355 0.0 4.0 0.00 0.00 0.00 63 1017.7
20221206035030 20 355 0.0 0.0 0.00 0.00 0.00 63 1017.6
20221206034529 20 355 1.0 4.0 0.00 0.00 0.00 62 1017.4
20221206034029 20 339 2.0 4.0 0.00 0.00 0.00 62 1017.5
20221206033529 20 339 1.0 3.0 0.00 0.00 0.00 62 1017.7
20221206033031 20 339 1.0 3.0 0.00 0.00 0.00 61 1017.7
20221206031512 21 339 1.0 3.0 0.00 0.00 0.00 60 1017.5
20221206030502 21 339 2.0 5.0 0.00 0.00 0.00 60 1017.5
20221206030001 21 338 2.0 5.0 0.00 0.00 0.00 60 1017.5
20221206025503 21 338 2.0 6.0 0.00 0.00 0.00 60 1017.5
20221206024500 21 334 1.0 7.0 0.00 0.00 0.00 59 1017.4
20221206024001 21 348 1.0 5.0 0.00 0.00 0.00 59 1017.4
20221206023502 22 349 3.0 8.0 0.00 0.00 0.00 59 1017.6
20221206023001 22 355 3.0 8.0 0.00 0.00 0.00 59 1017.6
20221206022502 22 348 2.0 9.0 0.00 0.00 0.00 58 1017.6
20221206022001 22 348 2.0 9.0 0.00 0.00 0.00 58 1017.5
20221206021501 22 350 1.0 4.0 0.00 0.00 0.00 58 1017.5
20221206021001 22 350 0.0 3.0 0.00 0.00 0.00 58 1017.5
20221206020501 22 319 0.0 0.0 0.00 0.00 0.00 58 1017.4
20221206015001 23 298 0.0 2.0 0.00 0.00 0.00 61 1017.1
20221206014000 23 342 2.0 8.0 0.00 0.00 0.00 67 1017.1
20221206013501 23 309 3.0 8.0 0.00 0.00 0.00 71 1017.1
20221206013001 23 9 2.0 8.0 0.00 0.00 0.00 75 1016.9
20221206012001 24 331 2.0 5.0 0.00 0.00 0.00 77 1016.8
20221206011501 24 330 1.0 5.0 0.00 0.00 0.00 77 1016.7
20221206011001 24 304 2.0 4.0 0.00 0.00 0.00 78 1016.5
20221206010501 24 304 2.0 4.0 0.00 0.00 0.00 78 1016.5
20221206010002 24 294 2.0 4.0 0.00 0.00 0.00 78 1016.5
20221206005501 24 277 1.0 3.0 0.00 0.00 0.00 79 1016.5
20221206005002 24 276 1.0 3.0 0.00 0.00 0.00 79 1016.5
20221206004001 24 333 1.0 3.0 0.00 0.00 0.00 79 1016.4
20221206003500 24 333 1.0 3.0 0.00 0.00 0.00 79 1016.4
20221206003002 24 333 1.0 3.0 0.00 0.00 0.00 79 1016.5
20221206002500 24 333 2.0 3.0 0.00 0.00 0.00 79 1016.5
20221206002001 24 333 2.0 8.0 0.00 0.00 0.00 79 1016.4
20221206001500 24 334 3.0 8.0 0.00 0.00 0.00 80 1016.4
20221206000954 24 317 2.0 6.0 0.00 0.00 0.00 80 1016.4
20221205235942 24 309 3.0 6.0 0.00 0.00 0.00 79 1016.2
20221205235443 24 309 3.0 6.0 0.00 0.00 0.00 79 1016.0
20221205234943 24 316 2.0 5.0 0.00 0.00 0.00 79 1016.0
20221205234442 24 316 2.0 5.0 0.00 0.00 0.00 79 1016.0
20221205233943 24 320 3.0 6.0 0.00 0.00 0.00 79 1015.9
20221205233443 24 13 3.0 8.0 0.00 0.00 0.00 78 1015.9
20221205232940 24 9 4.0 11.0 0.00 0.00 0.00 78 1016.0
20221205232440 24 333 4.0 11.0 0.00 0.00 0.00 77 1015.9
20221205231441 25 355 3.0 11.0 0.00 0.00 0.00 77 1015.7
20221205230940 25 5 2.0 7.0 0.00 0.00 0.00 77 1015.8
20221205225441 25 319 2.0 6.0 0.00 0.00 0.00 77 1015.5
20221205224940 25 348 2.0 6.0 0.00 0.00 0.00 77 1015.4
20221205224437 25 346 3.0 4.0 0.00 0.00 0.00 76 1015.2
20221205223938 25 349 3.0 6.0 0.00 0.00 0.00 76 1015.2
20221205223439 26 308 3.0 8.0 0.00 0.00 0.00 75 1015.3
20221205222439 26 317 2.0 8.0 0.00 0.00 0.00 74 1015.3
20221205221938 26 319 1.0 4.0 0.00 0.00 0.00 73 1015.1
20221205221438 26 319 1.0 9.0 0.00 0.00 0.00 72 1015.1
20221205220938 27 325 2.0 9.0 0.00 0.00 0.00 71 1015.1
20221205220438 27 312 3.0 8.0 0.00 0.00 0.00 70 1014.9
20221205215439 27 257 1.0 6.0 0.00 0.00 0.00 69 1014.8
20221205214938 27 319 0.0 0.0 0.00 0.00 0.00 67 1014.7
20221205213935 28 250 0.0 0.0 0.00 0.00 0.00 66 1014.7
20221205212930 28 245 1.0 5.0 0.00 0.00 0.00 64 1014.7
20221205212430 28 289 3.0 9.0 0.00 0.00 0.00 64 1014.5
20221205211929 28 305 3.0 9.0 0.00 0.00 0.00 63 1014.4
20221205211429 28 279 4.0 13.0 0.00 0.00 0.00 63 1014.2
20221205210930 28 274 3.0 13.0 0.00 0.00 0.00 64 1014.2
20221205210430 28 309 2.0 7.0 0.00 0.00 0.00 64 1014.2
20221205204930 28 0 3.0 11.0 0.00 0.00 0.00 63 1013.7
20221205204430 29 302 3.0 11.0 0.00 0.00 0.00 63 1013.6
20221205203930 29 323 3.0 9.0 0.00 0.00 0.00 63 1013.6
20221205203430 29 319 3.0 9.0 0.00 0.00 0.00 63 1013.7
20221205202929 29 326 3.0 7.0 0.00 0.00 0.00 63 1013.7
20221205202430 29 315 2.0 9.0 0.00 0.00 0.00 63 1013.6
20221205201930 29 355 2.0 9.0 0.00 0.00 0.00 63 1013.5
20221205201429 29 350 3.0 8.0 0.00 0.00 0.00 64 1013.6
20221205200929 29 285 3.0 6.0 0.00 0.00 0.00 64 1013.7
20221205200429 29 321 3.0 9.0 0.00 0.00 0.00 64 1013.6
20221205195430 30 312 3.0 9.0 0.00 0.00 0.00 64 1013.4
20221205194429 30 304 3.0 10.0 0.00 0.00 0.00 65 1013.3
20221205193930 30 312 3.0 10.0 0.00 0.00 0.00 65 1013.3
20221205192929 30 346 2.0 7.0 0.00 0.00 0.00 65 1012.9
20221205192430 30 294 2.0 8.0 0.00 0.00 0.00 65 1012.9
20221205191929 30 304 2.0 8.0 0.00 0.00 0.00 65 1013.0
20221205191429 30 343 2.0 6.0 0.00 0.00 0.00 66 1012.7
20221205190430 30 334 1.0 7.0 0.00 0.00 0.00 66 1012.6
20221205185928 30 254 1.0 7.0 0.00 0.00 0.00 65 1012.6
20221205185429 30 308 0.0 0.0 0.00 0.00 0.00 66 1012.5
20221205184930 30 325 1.0 6.0 0.00 0.00 0.00 67 1012.6
20221205184428 30 318 2.0 6.0 0.00 0.00 0.00 67 1012.6
20221205183930 30 346 3.0 8.0 0.00 0.00 0.00 67 1012.6
20221205183429 30 299 2.0 8.0 0.00 0.00 0.00 67 1012.6
20221205182930 30 329 2.0 8.0 0.00 0.00 0.00 68 1012.7
20221205181930 29 331 2.0 8.0 0.00 0.00 0.00 68 1012.5
20221205181429 29 323 0.0 0.0 0.00 0.00 0.00 70 1012.4
20221205180929 29 315 1.0 5.0 0.00 0.00 0.00 70 1012.5
20221205180430 29 315 2.0 5.0 0.00 0.00 0.00 70 1012.4
20221205175928 29 315 2.0 5.0 0.00 0.00 0.00 70 1012.3
20221205174930 29 315 3.0 5.0 0.00 0.00 0.00 71 1012.5
20221205174429 29 315 3.0 8.0 0.00 0.00 0.00 70 1012.6
20221205173928 29 332 4.0 8.0 0.00 0.00 0.00 70 1012.6
20221205173429 29 296 4.0 11.0 0.00 0.00 0.00 70 1012.6
20221205172929 29 320 3.0 11.0 0.00 0.00 0.00 70 1012.6
20221205172430 29 341 3.0 5.0 0.00 0.00 0.00 70 1012.6
20221205171930 29 355 3.0 9.0 0.00 0.00 0.00 70 1012.5
20221205171429 29 355 3.0 9.0 0.00 0.00 0.00 70 1012.5
20221205170930 29 324 3.0 6.0 0.00 0.00 0.00 70 1012.5
20221205170430 29 327 3.0 6.0 0.00 0.00 0.00 70 1012.7
20221205165928 29 327 3.0 8.0 0.00 0.00 0.00 70 1012.6
20221205165430 29 338 3.0 8.0 0.00 0.00 0.00 70 1012.6
20221205164929 29 335 3.0 6.0 0.00 0.00 0.00 70 1012.6
20221205164429 29 320 3.0 6.0 0.00 0.00 0.00 71 1012.6
20221205163930 29 322 3.0 6.0 0.00 0.00 0.00 71 1012.4
20221205162930 29 346 3.0 8.0 0.00 0.00 0.00 71 1012.6
20221205162429 29 311 4.0 9.0 0.00 0.00 0.00 71 1012.5
20221205161929 28 322 4.0 9.0 0.00 0.00 0.00 71 1012.5
20221205160428 29 313 3.0 9.0 0.00 0.00 0.00 71 1012.1
20221205155928 29 309 3.0 10.0 0.00 0.00 0.00 72 1012.1
20221205155430 29 336 3.0 10.0 0.00 0.00 0.00 72 1012.3
20221205154430 28 309 3.0 8.0 0.00 0.00 0.00 72 1012.1
20221205153430 28 355 3.0 10.0 0.00 0.00 0.00 73 1011.9
20221205152930 28 326 3.0 10.0 0.00 0.00 0.00 73 1012.1
20221205152430 28 342 3.0 9.0 0.00 0.00 0.00 73 1011.7
20221205151430 28 313 2.0 9.0 0.00 0.00 0.00 74 1011.3
20221205150930 28 306 3.0 9.0 0.00 0.00 0.00 74 1011.4
20221205150429 28 346 3.0 8.0 0.00 0.00 0.00 74 1011.4
20221205145929 28 330 3.0 8.0 0.00 0.00 0.00 75 1011.3
20221205145430 28 24 3.0 8.0 0.00 0.00 0.00 75 1011.6
20221205144930 28 338 2.0 6.0 0.00 0.00 0.00 75 1011.4
20221205144429 28 293 3.0 6.0 0.00 0.00 0.00 75 1011.3
20221205143929 27 313 3.0 6.0 0.00 0.00 0.00 75 1011.4
20221205142930 27 343 3.0 8.0 0.00 0.00 0.00 75 1011.2
20221205140930 27 333 2.0 5.0 0.00 0.00 0.00 76 1010.8
20221205135930 27 337 2.0 3.0 0.00 0.00 0.00 76 1010.5
20221205135429 27 337 2.0 4.0 0.00 0.00 0.00 76 1010.4
20221205134930 27 337 2.0 4.0 0.00 0.00 0.00 76 1010.4
20221205134429 27 336 2.0 5.0 0.00 0.00 0.00 76 1010.3
20221205133929 26 339 2.0 5.0 0.00 0.00 0.00 76 1010.0
20221205132930 26 326 2.0 6.0 0.00 0.00 0.00 76 1010.0
20221205132429 26 338 2.0 3.0 0.00 0.00 0.00 76 1009.9
20221205131929 26 338 2.0 5.0 0.00 0.00 0.00 76 1009.7
20221205131428 26 338 2.0 5.0 0.00 0.00 0.00 76 1009.3
20221205130430 27 338 0.0 2.0 0.00 0.00 0.00 76 1009.2
20221205125930 27 338 0.0 0.0 0.00 0.00 0.00 75 1009.1
20221205125429 27 338 0.0 0.0 0.00 0.00 0.00 76 1009.0
20221205124930 27 338 0.0 0.0 0.00 0.00 0.00 76 1009.0
20221205124423 27 338 0.0 2.0 0.00 0.00 0.00 75 1009.3
20221205123917 27 338 1.0 2.0 0.00 0.00 0.00 75 1009.2
20221205123418 27 338 1.0 2.0 0.00 0.00 0.00 75 1009.2
20221205122917 27 338 0.0 2.0 0.00 0.00 0.00 75 1009.2
20221205122418 27 338 0.0 2.0 0.00 0.00 0.00 75 1009.2
20221205121917 28 338 0.0 0.0 0.00 0.00 0.00 75 1009.1
20221205120916 28 338 0.0 0.0 0.00 0.00 0.00 75 1008.8
20221205115912 28 338 1.0 2.0 0.00 0.00 0.00 75 1008.8
20221205115412 28 338 1.0 2.0 0.00 0.00 0.00 75 1008.8
20221205114911 28 338 1.0 2.0 0.00 0.00 0.00 74 1008.9
20221205114409 28 338 1.0 2.0 0.00 0.00 0.00 74 1008.9
20221205113908 28 338 1.0 2.0 0.00 0.00 0.00 74 1008.7
20221205113405 28 338 1.0 2.0 0.00 0.00 0.00 74 1008.6
20221205112405 28 338 2.0 5.0 0.00 0.00 0.00 75 1008.5
20221205111905 28 338 1.0 4.0 0.00 0.00 0.00 75 1008.4
20221205111406 28 337 1.0 6.0 0.00 0.00 0.00 75 1008.5
20221205110902 28 337 2.0 6.0 0.00 0.00 0.00 75 1008.6
20221205105859 28 337 2.0 6.0 0.00 0.00 0.00 75 1008.7
20221205105353 28 9 1.0 8.0 0.00 0.00 0.00 75 1008.7
20221205104847 28 9 2.0 8.0 0.00 0.00 0.00 76 1009.0
20221205103843 28 355 2.0 5.0 0.00 0.00 0.00 76 1009.1
20221205103342 28 355 2.0 5.0 0.00 0.00 0.00 76 1008.8
20221205102843 27 0 2.0 5.0 0.00 0.00 0.00 76 1008.7
20221205102342 27 0 2.0 5.0 0.00 0.00 0.00 76 1008.8
20221205101341 27 9 2.0 5.0 0.00 0.00 0.00 76 1008.6
20221205100840 27 248 1.0 3.0 0.00 0.00 0.00 76 1008.7
20221205100339 27 247 1.0 2.0 0.00 0.00 0.00 76 1008.8
20221205095840 27 247 1.0 2.0 0.00 0.00 0.00 76 1008.7
20221205094837 27 247 1.0 2.0 0.00 0.00 0.00 76 1008.6
20221205094338 27 247 0.0 2.0 0.00 0.00 0.00 75 1008.7
20221205093837 27 247 1.0 2.0 0.00 0.00 0.00 75 1008.5
20221205093337 27 247 1.0 2.0 0.00 0.00 0.00 75 1008.4
20221205092834 27 247 1.0 2.0 0.00 0.00 0.00 75 1008.4
20221205091835 27 247 1.0 3.0 0.00 0.00 0.00 75 1008.3
20221205091335 28 247 0.0 3.0 0.00 0.00 0.00 75 1008.3
20221205090834 28 247 0.0 1.0 0.00 0.00 0.00 74 1008.3
20221205085835 28 247 1.0 3.0 0.00 0.00 0.00 75 1008.3
20221205085331 28 247 2.0 3.0 0.00 0.00 0.00 74 1008.1
20221205084832 28 247 2.0 3.0 0.00 0.00 0.00 74 1007.9
20221205084330 28 247 1.0 4.0 0.00 0.00 0.00 74 1008.0
20221205083832 28 247 2.0 4.0 0.00 0.00 0.00 74 1007.9
20221205083331 28 247 2.0 4.0 0.00 0.00 0.00 74 1008.0
20221205082830 28 247 2.0 4.0 0.00 0.00 0.00 74 1007.9
20221205082331 28 248 2.0 5.0 0.00 0.00 0.00 74 1007.9
20221205081831 28 248 2.0 5.0 0.00 0.00 0.00 74 1007.8
20221205080831 28 248 2.0 8.0 0.00 0.00 0.00 74 1007.9
20221205080330 28 248 2.0 8.0 0.00 0.00 0.00 74 1007.7
20221205075832 28 249 3.0 8.0 0.00 0.00 0.00 74 1007.5
20221205075330 28 248 3.0 8.0 0.00 0.00 0.00 74 1007.6
20221205074830 28 215 3.0 6.0 0.00 0.00 0.00 74 1007.7
20221205074330 28 221 2.0 4.0 0.00 0.00 0.00 73 1007.5
20221205073830 28 223 2.0 5.0 0.00 0.00 0.00 73 1007.6
20221205073332 28 223 2.0 5.0 0.00 0.00 0.00 73 1007.7
20221205072830 28 223 2.0 4.0 0.00 0.00 0.00 73 1007.5
20221205072331 28 223 2.0 4.0 0.00 0.00 0.00 73 1007.7
20221205071830 28 223 2.0 5.0 0.00 0.00 0.00 73 1007.5
20221205071330 28 222 2.0 6.0 0.00 0.00 0.00 73 1007.4
20221205070830 28 223 2.0 6.0 0.00 0.00 0.00 73 1007.6
20221205070329 28 223 2.0 7.0 0.00 0.00 0.00 73 1007.7
20221205065830 28 220 2.0 7.0 0.00 0.00 0.00 72 1007.8
20221205065329 28 253 2.0 5.0 0.00 0.00 0.00 72 1007.8
20221205064830 28 253 2.0 5.0 0.00 0.00 0.00 72 1007.7
20221205063329 28 254 4.0 7.0 0.00 0.00 0.00 71 1007.7
20221205062830 29 221 4.0 7.0 0.00 0.00 0.00 71 1007.7
20221205062329 29 219 4.0 7.0 0.00 0.00 0.00 71 1007.8
20221205061330 29 242 4.0 8.0 0.00 0.00 0.00 70 1007.8
20221205060828 29 247 4.0 9.0 0.00 0.00 0.00 70 1008.0
20221205060322 29 231 5.0 9.0 0.00 0.00 0.00 70 1007.8
20221205055816 29 196 4.0 8.0 0.00 0.00 0.00 69 1007.8
20221205055310 30 267 4.0 7.0 0.00 0.00 0.00 69 1007.7
20221205054803 30 223 4.0 8.0 0.00 0.00 0.00 69 1007.6
20221205054302 30 234 4.0 8.0 0.00 0.00 0.00 69 1007.6
20221205053302 30 215 4.0 10.0 0.00 0.00 0.00 69 1007.7
20221205052802 30 240 4.0 10.0 0.00 0.00 0.00 69 1007.8
20221205052305 30 235 4.0 8.0 0.00 0.00 0.00 69 1007.7
20221205051802 30 250 3.0 8.0 0.00 0.00 0.00 69 1007.7
20221205051303 30 258 4.0 9.0 0.00 0.00 0.00 68 1007.8
20221205050802 30 221 4.0 9.0 0.00 0.00 0.00 68 1007.8
20221205050301 30 250 4.0 8.0 0.00 0.00 0.00 68 1007.9
20221205044800 30 234 4.0 12.0 0.00 0.00 0.00 68 1008.0
20221205044302 30 230 3.0 12.0 0.00 0.00 0.00 67 1008.1
20221205043801 30 245 3.0 7.0 0.00 0.00 0.00 67 1008.0
20221205043301 30 236 3.0 6.0 0.00 0.00 0.00 67 1007.9
20221205042801 30 232 3.0 9.0 0.00 0.00 0.00 67 1007.9
20221205042305 30 241 4.0 9.0 0.00 0.00 0.00 66 1007.9